Time,TemperatureF,DewpointF,PressureIn,WindDirection,WindDirectionDegrees,WindSpeedMPH,WindSpeedGustMPH,Humidity,HourlyPrecipIn,Conditions,Clouds,dailyrainin,SoftwareType,DateUTC
2013-01-25 00:01:00,59.0,58.4,30.25,NNW,338,0.0,0.0,98,0.00,CLR,,0.00,WeatherDisplay:10.37,2013-01-25 05:01:00,
2013-01-25 00:03:00,59.0,58.4,30.25,NNW,338,0.0,0.0,98,0.00,CLR,,0.00,WeatherDisplay:10.37,2013-01-25 05:03:00,
2013-01-25 00:08:00,58.6,58.0,30.26,NNW,338,0.0,0.0,98,0.00,CLR,,0.00,WeatherDisplay:10.37,2013-01-25 05:08:00,
2013-01-25 00:13:00,58.6,58.0,30.26,NNW,338,0.0,0.0,98,0.00,CLR,,0.00,WeatherDisplay:10.37,2013-01-25 05:13:00,
2013-01-25 00:18:00,58.6,58.0,30.26,NNW,338,0.0,0.0,98,0.00,CLR,,0.00,WeatherDisplay:10.37,2013-01-25 05:18:00,
2013-01-25 00:23:00,58.5,57.9,30.26,NNW,338,0.0,0.0,98,0.00,CLR,,0.00,WeatherDisplay:10.37,2013-01-25 05:23:00,
2013-01-25 00:28:00,58.5,57.9,30.26,NNW,338,0.0,0.0,98,0.00,CLR,,0.00,WeatherDisplay:10.37,2013-01-25 05:28:00,
2013-01-25 00:33:00,58.3,57.7,30.28,NNW,338,0.0,0.0,98,0.00,CLR,,0.00,WeatherDisplay:10.37,2013-01-25 05:33:00,
2013-01-25 00:38:00,58.3,57.7,30.28,NNW,338,0.0,0.0,98,0.00,CLR,,0.00,WeatherDisplay:10.37,2013-01-25 05:38:00,
2013-01-25 00:43:00,58.1,57.5,30.30,NNW,338,0.0,0.0,98,0.00,CLR,,0.00,WeatherDisplay:10.37,2013-01-25 05:43:00,
2013-01-25 00:48:00,57.9,57.3,30.30,NNW,338,0.0,0.0,98,0.00,CLR,,0.00,WeatherDisplay:10.37,2013-01-25 05:48:00,
2013-01-25 00:53:00,57.9,57.3,30.30,NNW,338,0.0,0.0,98,0.00,CLR,,0.00,WeatherDisplay:10.37,2013-01-25 05:53:00,
2013-01-25 00:58:00,57.9,57.3,30.30,NNW,338,0.0,0.0,98,0.00,CLR,,0.00,WeatherDisplay:10.37,2013-01-25 05:58:00,
2013-01-25 01:03:00,57.9,57.3,30.30,NNW,338,0.0,0.0,98,0.00,CLR,,0.00,WeatherDisplay:10.37,2013-01-25 06:03:00,
2013-01-25 01:08:00,57.9,57.3,30.30,NNW,338,0.0,0.0,98,0.00,CLR,,0.00,WeatherDisplay:10.37,2013-01-25 06:08:00,
2013-01-25 01:13:00,57.9,57.3,30.30,NNW,338,0.0,0.0,98,0.00,CLR,,0.00,WeatherDisplay:10.37,2013-01-25 06:13:00,
2013-01-25 01:18:00,57.9,57.3,30.30,NNW,338,0.0,0.0,98,0.00,CLR,,0.00,WeatherDisplay:10.37,2013-01-25 06:18:00,
2013-01-25 01:23:00,57.7,57.1,30.30,NNW,338,0.0,0.0,98,0.00,CLR,,0.00,WeatherDisplay:10.37,2013-01-25 06:23:00,
2013-01-25 01:28:00,57.6,57.0,30.30,NNW,338,0.0,0.0,98,0.00,CLR,,0.00,WeatherDisplay:10.37,2013-01-25 06:28:00,
2013-01-25 01:33:00,57.6,57.0,30.30,NNW,338,0.0,0.0,98,0.00,CLR,,0.00,WeatherDisplay:10.37,2013-01-25 06:33:00,
2013-01-25 01:38:00,57.6,57.0,30.30,NNW,338,0.0,0.0,98,0.00,CLR,,0.00,WeatherDisplay:10.37,2013-01-25 06:38:00,
2013-01-25 01:43:00,57.6,57.0,30.30,NNW,338,0.0,0.0,98,0.00,CLR,,0.00,WeatherDisplay:10.37,2013-01-25 06:43:00,
2013-01-25 01:48:00,57.7,57.1,30.30,NNW,338,0.0,0.0,98,0.00,CLR,,0.00,WeatherDisplay:10.37,2013-01-25 06:48:00,
2013-01-25 01:53:00,57.7,57.1,30.30,NNW,338,0.0,0.0,98,0.00,CLR,,0.00,WeatherDisplay:10.37,2013-01-25 06:53:00,
2013-01-25 01:58:00,57.7,57.1,30.30,NNW,338,0.0,0.0,98,0.00,CLR,,0.00,WeatherDisplay:10.37,2013-01-25 06:58:00,
2013-01-25 02:03:00,57.9,57.3,30.30,NNW,338,0.0,0.0,98,0.00,CLR,,0.00,WeatherDisplay:10.37,2013-01-25 07:03:00,
2013-01-25 02:08:00,57.7,57.1,30.30,NNW,338,0.0,0.0,98,0.00,CLR,,0.00,WeatherDisplay:10.37,2013-01-25 07:08:00,
2013-01-25 02:13:00,57.9,57.3,30.30,NNW,338,0.0,0.0,98,0.00,CLR,,0.00,WeatherDisplay:10.37,2013-01-25 07:13:00,
2013-01-25 02:18:00,57.9,57.3,30.30,NNW,338,0.0,0.0,98,0.00,CLR,,0.00,WeatherDisplay:10.37,2013-01-25 07:18:00,
2013-01-25 02:23:00,57.9,57.3,30.30,NNW,338,0.0,0.0,98,0.00,CLR,,0.00,WeatherDisplay:10.37,2013-01-25 07:23:00,
2013-01-25 02:28:00,57.9,57.3,30.30,NNW,338,0.0,0.0,98,0.00,CLR,,0.00,WeatherDisplay:10.37,2013-01-25 07:28:00,
2013-01-25 02:33:00,57.9,57.3,30.31,NNW,338,0.0,0.0,98,0.00,CLR,,0.00,WeatherDisplay:10.37,2013-01-25 07:33:00,
2013-01-25 02:38:00,57.7,57.1,30.31,NNW,338,0.0,0.0,98,0.00,CLR,,0.00,WeatherDisplay:10.37,2013-01-25 07:38:00,
2013-01-25 02:43:00,57.9,57.3,30.31,NNW,338,0.0,0.0,98,0.00,CLR,,0.00,WeatherDisplay:10.37,2013-01-25 07:43:00,
2013-01-25 02:48:00,57.9,57.3,30.31,NNW,338,0.0,0.0,98,0.00,CLR,,0.00,WeatherDisplay:10.37,2013-01-25 07:48:00,
2013-01-25 02:53:00,57.9,57.3,30.30,NNW,338,0.0,0.0,98,0.00,CLR,,0.00,WeatherDisplay:10.37,2013-01-25 07:53:00,
2013-01-25 02:58:00,57.9,57.3,30.30,NNW,338,0.0,0.0,98,0.00,CLR,,0.00,WeatherDisplay:10.37,2013-01-25 07:58:00,
2013-01-25 03:03:00,57.9,57.3,30.30,NNW,338,0.0,0.0,98,0.00,CLR,,0.00,WeatherDisplay:10.37,2013-01-25 08:03:00,
2013-01-25 03:08:00,57.9,57.3,30.32,NNW,338,0.0,0.0,98,0.00,CLR,,0.00,WeatherDisplay:10.37,2013-01-25 08:08:00,
2013-01-25 03:13:00,57.9,57.3,30.32,NNW,338,0.0,0.0,98,0.00,CLR,,0.00,WeatherDisplay:10.37,2013-01-25 08:13:00,
2013-01-25 03:18:00,57.9,57.3,30.32,NNW,338,0.0,0.0,98,0.00,CLR,,0.00,WeatherDisplay:10.37,2013-01-25 08:18:00,
2013-01-25 03:23:00,57.9,57.3,30.32,NNW,338,0.0,0.0,98,0.00,CLR,,0.00,WeatherDisplay:10.37,2013-01-25 08:23:00,
2013-01-25 03:28:00,57.9,57.3,30.32,NNW,338,0.0,0.0,98,0.00,CLR,,0.00,WeatherDisplay:10.37,2013-01-25 08:28:00,
2013-01-25 03:33:00,57.7,57.1,30.31,NNW,338,0.0,0.0,98,0.00,CLR,,0.00,WeatherDisplay:10.37,2013-01-25 08:33:00,
2013-01-25 03:38:00,57.7,57.1,30.31,NNW,338,0.0,0.0,98,0.00,CLR,,0.00,WeatherDisplay:10.37,2013-01-25 08:38:00,
2013-01-25 03:43:00,57.7,57.1,30.33,NNW,338,0.0,0.0,98,0.00,CLR,,0.00,WeatherDisplay:10.37,2013-01-25 08:43:00,
2013-01-25 03:48:00,57.7,57.1,30.33,NNW,338,0.0,0.0,98,0.00,CLR,,0.00,WeatherDisplay:10.37,2013-01-25 08:48:00,
2013-01-25 03:53:00,57.7,57.1,30.34,NNW,338,0.0,0.0,98,0.00,CLR,,0.00,WeatherDisplay:10.37,2013-01-25 08:53:00,
2013-01-25 03:58:00,57.7,57.1,30.34,NNW,338,0.0,0.0,98,0.00,CLR,,0.00,WeatherDisplay:10.37,2013-01-25 08:58:00,
2013-01-25 04:03:00,57.7,57.1,30.34,NNW,338,0.0,0.0,98,0.00,CLR,,0.00,WeatherDisplay:10.37,2013-01-25 09:03:00,
2013-01-25 04:08:00,57.7,57.1,30.33,NNW,338,0.0,0.0,98,0.00,CLR,,0.00,WeatherDisplay:10.37,2013-01-25 09:08:00,
2013-01-25 04:13:00,57.6,57.0,30.33,NNW,338,0.0,0.0,98,0.00,CLR,,0.00,WeatherDisplay:10.37,2013-01-25 09:13:00,
2013-01-25 04:18:00,57.4,56.8,30.34,NNW,338,0.0,0.0,98,0.00,CLR,,0.00,WeatherDisplay:10.37,2013-01-25 09:18:00,
2013-01-25 04:23:00,57.2,56.6,30.34,NNW,338,0.0,0.0,98,0.00,CLR,,0.00,WeatherDisplay:10.37,2013-01-25 09:23:00,
2013-01-25 04:28:00,57.0,56.4,30.34,NNW,338,0.0,0.0,98,0.00,CLR,,0.00,WeatherDisplay:10.37,2013-01-25 09:28:00,
2013-01-25 04:33:00,56.8,56.2,30.36,NNW,338,0.0,0.0,98,0.00,CLR,,0.00,WeatherDisplay:10.37,2013-01-25 09:33:00,
2013-01-25 04:38:00,56.8,56.2,30.36,NNW,338,0.0,0.0,98,0.00,CLR,,0.00,WeatherDisplay:10.37,2013-01-25 09:38:00,
2013-01-25 04:43:00,56.8,56.2,30.35,NNW,338,0.0,0.0,98,0.00,CLR,,0.00,WeatherDisplay:10.37,2013-01-25 09:43:00,
2013-01-25 04:49:00,56.8,56.2,30.35,NNW,338,0.0,0.0,98,0.00,CLR,,0.00,WeatherDisplay:10.37,2013-01-25 09:49:00,
2013-01-25 04:54:00,56.8,56.2,30.36,NNW,338,0.0,0.0,98,0.00,CLR,,0.00,WeatherDisplay:10.37,2013-01-25 09:54:00,
2013-01-25 04:59:00,56.8,56.2,30.36,NNW,338,0.0,0.0,98,0.00,CLR,,0.00,WeatherDisplay:10.37,2013-01-25 09:59:00,
2013-01-25 05:04:00,56.8,56.2,30.36,NNW,338,0.0,0.0,98,0.00,CLR,,0.00,WeatherDisplay:10.37,2013-01-25 10:04:00,
2013-01-25 05:09:00,56.8,56.2,30.38,NNW,338,0.0,0.0,98,0.00,CLR,,0.00,WeatherDisplay:10.37,2013-01-25 10:09:00,
2013-01-25 05:14:00,56.8,56.2,30.38,NNW,338,0.0,0.0,98,0.00,CLR,,0.00,WeatherDisplay:10.37,2013-01-25 10:14:00,
2013-01-25 05:19:00,57.0,56.4,30.39,NNW,338,0.0,0.0,98,0.00,CLR,,0.00,WeatherDisplay:10.37,2013-01-25 10:19:00,
2013-01-25 05:24:00,57.0,56.4,30.39,NNW,338,0.0,0.0,98,0.00,CLR,,0.00,WeatherDisplay:10.37,2013-01-25 10:24:00,
2013-01-25 05:29:00,57.0,56.4,30.39,NNW,338,0.0,0.0,98,0.00,CLR,,0.00,WeatherDisplay:10.37,2013-01-25 10:29:00,
2013-01-25 05:34:00,57.0,56.4,30.38,NNW,338,0.0,0.0,98,0.00,CLR,,0.00,WeatherDisplay:10.37,2013-01-25 10:34:00,
2013-01-25 05:39:00,57.0,56.4,30.38,NNW,338,0.0,0.0,98,0.00,CLR,,0.00,WeatherDisplay:10.37,2013-01-25 10:39:00,
2013-01-25 05:44:00,57.0,56.4,30.39,NNW,338,0.0,0.0,98,0.00,CLR,,0.00,WeatherDisplay:10.37,2013-01-25 10:44:00,
2013-01-25 05:49:00,57.0,56.4,30.39,NNW,338,0.0,0.0,98,0.00,CLR,,0.00,WeatherDisplay:10.37,2013-01-25 10:49:00,
2013-01-25 05:54:00,57.2,56.6,30.39,NNW,338,0.0,0.0,98,0.00,CLR,,0.00,WeatherDisplay:10.37,2013-01-25 10:54:00,
2013-01-25 05:59:00,57.2,56.6,30.41,NNW,338,0.0,0.0,98,0.00,CLR,,0.00,WeatherDisplay:10.37,2013-01-25 10:59:00,
2013-01-25 06:04:00,57.2,56.6,30.41,NNW,338,0.0,0.0,98,0.00,CLR,,0.00,WeatherDisplay:10.37,2013-01-25 11:04:00,
2013-01-25 06:09:00,57.2,56.6,30.40,NNW,338,0.0,0.0,98,0.00,CLR,,0.00,WeatherDisplay:10.37,2013-01-25 11:09:00,
2013-01-25 06:14:00,57.2,56.6,30.40,NNW,338,0.0,0.0,98,0.00,CLR,,0.00,WeatherDisplay:10.37,2013-01-25 11:14:00,
2013-01-25 06:19:00,57.2,56.6,30.40,NNW,338,0.0,0.0,98,0.00,CLR,,0.00,WeatherDisplay:10.37,2013-01-25 11:19:00,
2013-01-25 06:24:00,57.2,56.6,30.40,NNW,338,0.0,0.0,98,0.00,CLR,,0.00,WeatherDisplay:10.37,2013-01-25 11:24:00,
2013-01-25 06:29:00,57.2,56.6,30.40,NNW,338,0.0,0.0,98,0.00,CLR,,0.00,WeatherDisplay:10.37,2013-01-25 11:29:00,
2013-01-25 06:34:00,57.2,56.6,30.41,NNW,338,0.0,0.0,98,0.00,CLR,,0.00,WeatherDisplay:10.37,2013-01-25 11:34:00,
2013-01-25 06:39:00,57.0,56.4,30.41,NNW,338,0.0,0.0,98,0.00,CLR,,0.00,WeatherDisplay:10.37,2013-01-25 11:39:00,
2013-01-25 06:44:00,57.0,56.4,30.39,NNW,338,0.0,0.0,98,0.00,CLR,,0.00,WeatherDisplay:10.37,2013-01-25 11:44:00,
2013-01-25 06:49:00,57.0,56.4,30.39,NNW,338,0.0,0.0,98,0.00,CLR,,0.00,WeatherDisplay:10.37,2013-01-25 11:49:00,
2013-01-25 06:54:00,57.0,56.4,30.39,NNW,338,0.0,0.0,98,0.00,CLR,,0.00,WeatherDisplay:10.37,2013-01-25 11:54:00,
2013-01-25 06:59:00,57.0,56.4,30.38,NNW,338,0.0,0.0,98,0.00,CLR,,0.00,WeatherDisplay:10.37,2013-01-25 11:59:00,
2013-01-25 07:04:00,57.0,56.4,30.38,NNW,338,0.0,0.0,98,0.00,CLR,,0.00,WeatherDisplay:10.37,2013-01-25 12:04:00,
2013-01-25 07:09:00,56.8,56.2,30.60,NNW,338,0.0,0.0,98,0.00,CLR,,0.00,WeatherDisplay:10.37,2013-01-25 12:09:00,
2013-01-25 07:14:00,56.8,56.2,30.60,NNW,338,0.0,0.0,98,0.00,CLR,,0.00,WeatherDisplay:10.37,2013-01-25 12:14:00,
2013-01-25 07:19:00,56.8,56.2,30.83,NNW,338,0.0,0.0,98,0.00,CLR,,0.00,WeatherDisplay:10.37,2013-01-25 12:19:00,
2013-01-25 07:24:00,56.8,56.2,30.83,NNW,338,0.0,0.0,98,0.00,CLR,,0.00,WeatherDisplay:10.37,2013-01-25 12:24:00,
2013-01-25 07:29:00,56.8,56.2,30.83,NNW,338,0.0,0.0,98,0.00,CLR,,0.00,WeatherDisplay:10.37,2013-01-25 12:29:00,
2013-01-25 07:34:00,56.8,56.2,30.92,NNW,338,0.0,0.0,98,0.00,CLR,,0.00,WeatherDisplay:10.37,2013-01-25 12:34:00,
2013-01-25 07:39:00,56.8,56.2,30.92,NNW,338,0.0,0.0,98,0.00,CLR,,0.00,WeatherDisplay:10.37,2013-01-25 12:39:00,
2013-01-25 07:44:00,57.0,56.4,30.75,NNW,338,0.0,0.0,98,0.00,CLR,,0.00,WeatherDisplay:10.37,2013-01-25 12:44:00,
2013-01-25 07:49:00,57.7,57.1,30.75,NNW,338,0.0,0.0,98,0.00,CLR,,0.00,WeatherDisplay:10.37,2013-01-25 12:49:00,
2013-01-25 07:54:00,59.2,58.6,30.60,NNW,338,0.0,0.0,98,0.00,CLR,,0.00,WeatherDisplay:10.37,2013-01-25 12:54:00,
2013-01-25 07:59:00,60.3,59.7,30.60,NNW,338,0.0,0.0,98,0.00,CLR,,0.00,WeatherDisplay:10.37,2013-01-25 12:59:00,
2013-01-25 08:04:00,60.4,59.8,30.60,NNW,338,0.0,0.0,98,0.00,CLR,,0.00,WeatherDisplay:10.37,2013-01-25 13:04:00,
2013-01-25 08:09:00,61.0,60.4,30.54,NNW,338,0.0,0.0,98,0.00,CLR,,0.00,WeatherDisplay:10.37,2013-01-25 13:09:00,
2013-01-25 08:14:00,61.7,61.1,30.54,NNW,338,0.0,0.0,98,0.00,CLR,,0.00,WeatherDisplay:10.37,2013-01-25 13:14:00,
2013-01-25 08:19:00,62.1,61.5,30.51,NNW,338,0.0,0.0,98,0.00,CLR,,0.00,WeatherDisplay:10.37,2013-01-25 13:19:00,
2013-01-25 08:24:00,62.6,62.0,30.51,NNW,338,1.1,0.0,98,0.00,CLR,,0.00,WeatherDisplay:10.37,2013-01-25 13:24:00,
2013-01-25 08:29:00,63.1,62.5,30.51,NNW,338,0.0,0.0,98,0.00,CLR,,0.00,WeatherDisplay:10.37,2013-01-25 13:29:00,
2013-01-25 08:34:00,63.9,63.3,30.49,NNW,338,0.0,0.0,98,0.00,CLR,,0.00,WeatherDisplay:10.37,2013-01-25 13:34:00,
2013-01-25 08:39:00,64.4,63.8,30.49,NNW,338,0.0,0.0,98,0.00,CLR,,0.00,WeatherDisplay:10.37,2013-01-25 13:39:00,
2013-01-25 08:44:00,64.8,64.2,30.48,NNW,338,2.3,2.3,98,0.00,CLR,,0.00,WeatherDisplay:10.37,2013-01-25 13:44:00,
2013-01-25 08:49:00,65.3,64.7,30.48,NNW,338,0.0,0.0,98,0.00,CLR,,0.00,WeatherDisplay:10.37,2013-01-25 13:49:00,
2013-01-25 08:54:00,65.8,65.2,30.46,NNW,338,2.3,2.3,98,0.00,CLR,,0.00,WeatherDisplay:10.37,2013-01-25 13:54:00,
2013-01-25 08:59:00,66.2,65.6,30.46,NNW,338,0.0,0.0,98,0.00,CLR,,0.00,WeatherDisplay:10.37,2013-01-25 13:59:00,
2013-01-25 09:04:00,67.3,66.7,30.46,NNW,338,1.1,1.1,98,0.00,CLR,,0.00,WeatherDisplay:10.37,2013-01-25 14:04:00,
2013-01-25 09:09:00,67.1,66.5,30.43,NNW,338,2.3,2.3,98,0.00,CLR,,0.00,WeatherDisplay:10.37,2013-01-25 14:09:00,
2013-01-25 09:14:00,67.3,66.7,30.43,NNW,338,0.0,0.0,98,0.00,CLR,,0.00,WeatherDisplay:10.37,2013-01-25 14:14:00,
2013-01-25 09:19:00,67.5,66.9,30.40,NNW,338,1.1,1.1,98,0.00,CLR,,0.00,WeatherDisplay:10.37,2013-01-25 14:19:00,
2013-01-25 09:24:00,67.6,67.0,30.40,NNW,338,1.1,1.3,98,0.00,CLR,,0.00,WeatherDisplay:10.37,2013-01-25 14:24:00,
2013-01-25 09:29:00,68.4,67.8,30.40,NNW,338,0.0,0.0,98,0.00,CLR,,0.00,WeatherDisplay:10.37,2013-01-25 14:29:00,
2013-01-25 09:34:00,68.9,68.3,30.37,NNW,338,0.0,0.0,98,0.00,CLR,,0.00,WeatherDisplay:10.37,2013-01-25 14:34:00,
2013-01-25 09:39:00,69.4,68.8,30.37,NNW,338,1.1,0.0,98,0.00,CLR,,0.00,WeatherDisplay:10.37,2013-01-25 14:39:00,
2013-01-25 09:44:00,69.8,69.2,30.35,NNW,338,0.0,0.0,98,0.00,CLR,,0.00,WeatherDisplay:10.37,2013-01-25 14:44:00,
2013-01-25 09:49:00,70.3,68.2,30.35,NNW,338,0.0,0.0,93,0.00,CLR,,0.00,WeatherDisplay:10.37,2013-01-25 14:49:00,
2013-01-25 09:54:00,70.7,65.6,30.31,NNW,338,2.3,2.3,84,0.00,CLR,,0.00,WeatherDisplay:10.37,2013-01-25 14:54:00,
2013-01-25 09:59:00,71.2,65.4,30.31,NNW,338,1.1,0.0,82,0.00,CLR,,0.00,WeatherDisplay:10.37,2013-01-25 14:59:00,
2013-01-25 10:04:00,70.9,63.3,30.31,NNW,338,1.1,0.0,77,0.00,CLR,,0.00,WeatherDisplay:10.37,2013-01-25 15:04:00,
2013-01-25 10:09:00,71.6,63.6,30.28,NNW,338,1.1,1.1,76,0.00,CLR,,0.00,WeatherDisplay:10.37,2013-01-25 15:09:00,
2013-01-25 10:14:00,72.3,64.7,30.28,NNW,338,0.0,0.0,77,0.00,CLR,,0.00,WeatherDisplay:10.37,2013-01-25 15:14:00,
2013-01-25 10:19:00,72.3,63.9,30.25,NNW,338,1.1,1.1,75,0.00,CLR,,0.00,WeatherDisplay:10.37,2013-01-25 15:19:00,
2013-01-25 10:24:00,72.9,64.9,30.25,NNW,338,0.0,0.0,76,0.00,CLR,,0.00,WeatherDisplay:10.37,2013-01-25 15:24:00,
2013-01-25 10:29:00,73.2,63.6,30.25,NNW,338,0.0,0.0,72,0.00,CLR,,0.00,WeatherDisplay:10.37,2013-01-25 15:29:00,
2013-01-25 10:34:00,73.0,63.0,30.20,NNW,338,1.1,1.1,71,0.00,CLR,,0.00,WeatherDisplay:10.37,2013-01-25 15:34:00,
2013-01-25 10:39:00,72.9,63.3,30.20,NNW,338,1.1,1.1,72,0.00,CLR,,0.00,WeatherDisplay:10.37,2013-01-25 15:39:00,
2013-01-25 10:44:00,73.6,63.6,30.16,NNW,338,0.0,0.0,71,0.00,CLR,,0.00,WeatherDisplay:10.37,2013-01-25 15:44:00,
2013-01-25 10:49:00,73.6,63.2,30.16,NNW,338,0.0,0.0,70,0.00,CLR,,0.00,WeatherDisplay:10.37,2013-01-25 15:49:00,
2013-01-25 10:54:00,74.5,64.1,30.11,NNW,338,0.0,0.0,70,0.00,CLR,,0.00,WeatherDisplay:10.37,2013-01-25 15:54:00,
2013-01-25 10:59:00,74.7,65.5,30.11,NNW,338,0.0,0.0,73,0.00,CLR,,0.00,WeatherDisplay:10.37,2013-01-25 15:59:00,
2013-01-25 11:04:00,74.7,63.9,30.11,NNW,338,0.0,0.0,69,0.00,CLR,,0.00,WeatherDisplay:10.37,2013-01-25 16:04:00,
2013-01-25 11:09:00,74.5,64.1,30.06,NNW,338,0.0,0.0,70,0.00,CLR,,0.00,WeatherDisplay:10.37,2013-01-25 16:09:00,
2013-01-25 11:14:00,75.4,64.9,30.06,NNW,338,2.2,2.2,70,0.00,CLR,,0.00,WeatherDisplay:10.37,2013-01-25 16:14:00,
2013-01-25 11:19:00,75.6,65.5,30.31,NNW,338,0.0,0.0,71,0.00,CLR,,0.00,WeatherDisplay:10.37,2013-01-25 16:19:00,
2013-01-25 11:24:00,76.1,67.6,30.31,NNW,338,0.0,0.0,75,0.00,CLR,,0.00,WeatherDisplay:10.37,2013-01-25 16:24:00,
2013-01-25 11:29:00,75.2,65.9,30.31,NNW,338,0.0,0.0,73,0.00,CLR,,0.00,WeatherDisplay:10.37,2013-01-25 16:29:00,
2013-01-25 11:34:00,75.4,66.1,30.50,NNW,338,0.0,0.0,73,0.00,CLR,,0.00,WeatherDisplay:10.37,2013-01-25 16:34:00,
2013-01-25 11:39:00,76.1,66.4,30.50,NNW,338,0.0,0.0,72,0.00,CLR,,0.00,WeatherDisplay:10.37,2013-01-25 16:39:00,
2013-01-25 11:44:00,75.9,65.4,30.61,NNW,338,0.0,0.0,70,0.00,CLR,,0.00,WeatherDisplay:10.37,2013-01-25 16:44:00,
2013-01-25 11:49:00,77.5,65.7,30.61,NNW,338,1.1,1.1,67,0.00,CLR,,0.00,WeatherDisplay:10.37,2013-01-25 16:49:00,
2013-01-25 11:54:00,75.7,66.0,30.67,NNW,338,0.0,0.0,72,0.00,CLR,,0.00,WeatherDisplay:10.37,2013-01-25 16:54:00,
2013-01-25 11:59:00,76.5,67.2,30.67,NNW,338,3.5,3.5,73,0.00,CLR,,0.00,WeatherDisplay:10.37,2013-01-25 16:59:00,
2013-01-25 12:04:00,77.2,66.7,30.67,NNW,338,0.0,0.0,70,0.00,CLR,,0.00,WeatherDisplay:10.37,2013-01-25 17:04:00,
2013-01-25 12:09:00,77.7,66.7,30.70,NNW,338,0.0,0.0,69,0.00,CLR,,0.00,WeatherDisplay:10.37,2013-01-25 17:09:00,
2013-01-25 12:14:00,77.2,67.5,30.70,NNW,338,0.0,0.0,72,0.00,CLR,,0.00,WeatherDisplay:10.37,2013-01-25 17:14:00,
2013-01-25 12:19:00,77.5,68.2,30.42,NNW,338,0.0,0.0,73,0.00,CLR,,0.00,WeatherDisplay:10.37,2013-01-25 17:19:00,
2013-01-25 12:24:00,77.0,68.5,30.42,SSE,158,4.6,4.6,75,0.00,CLR,,0.00,WeatherDisplay:10.37,2013-01-25 17:24:00,
2013-01-25 12:29:00,77.5,69.3,30.42,NNW,338,1.1,1.1,76,0.00,CLR,,0.00,WeatherDisplay:10.37,2013-01-25 17:29:00,
2013-01-25 12:34:00,77.0,70.7,30.19,NNW,338,1.1,0.0,81,0.00,CLR,,0.00,WeatherDisplay:10.37,2013-01-25 17:34:00,
2013-01-25 12:40:00,78.4,69.4,30.19,NNW,338,0.0,0.0,74,0.00,CLR,,0.00,WeatherDisplay:10.37,2013-01-25 17:40:00,
2013-01-25 12:45:00,76.8,69.0,30.27,NNW,338,0.0,0.0,77,0.00,CLR,,0.00,WeatherDisplay:10.37,2013-01-25 17:45:00,
2013-01-25 12:50:00,78.3,68.5,30.27,ESE,112,3.5,3.5,72,0.00,CLR,,0.00,WeatherDisplay:10.37,2013-01-25 17:50:00,
2013-01-25 12:55:00,77.4,68.5,30.45,SSW,202,2.7,2.7,74,0.00,CLR,,0.00,WeatherDisplay:10.37,2013-01-25 17:55:00,
2013-01-25 13:00:00,79.7,67.8,30.45,ESE,112,2.3,2.3,67,0.00,CLR,,0.00,WeatherDisplay:10.37,2013-01-25 18:00:00,
2013-01-25 13:05:00,78.1,69.5,30.45,ESE,112,3.5,3.5,75,0.00,CLR,,0.00,WeatherDisplay:10.37,2013-01-25 18:05:00,
2013-01-25 13:10:00,76.6,70.3,30.56,SSW,202,0.0,0.0,81,0.00,CLR,,0.00,WeatherDisplay:10.37,2013-01-25 18:10:00,
2013-01-25 13:15:00,76.5,70.2,30.56,WSW,248,2.3,2.3,81,0.00,CLR,,0.00,WeatherDisplay:10.37,2013-01-25 18:15:00,
2013-01-25 13:20:00,77.0,70.4,30.60,SSE,158,3.5,3.5,80,0.00,CLR,,0.00,WeatherDisplay:10.37,2013-01-25 18:20:00,
2013-01-25 13:25:00,77.4,70.7,30.60,SSE,158,3.5,3.5,80,0.00,CLR,,0.00,WeatherDisplay:10.37,2013-01-25 18:25:00,
2013-01-25 13:30:00,78.3,70.1,30.62,SSE,158,0.0,0.0,76,0.00,CLR,,0.00,WeatherDisplay:10.37,2013-01-25 18:30:00,
2013-01-25 13:35:00,76.3,69.7,30.62,SW,225,1.1,1.1,80,0.00,CLR,,0.00,WeatherDisplay:10.37,2013-01-25 18:35:00,
2013-01-25 13:40:00,76.8,72.6,30.62,SW,225,0.0,0.0,87,0.00,CLR,,0.00,WeatherDisplay:10.37,2013-01-25 18:40:00,
2013-01-25 13:45:00,77.9,70.5,30.63,SSE,158,3.5,3.5,78,0.00,CLR,,0.00,WeatherDisplay:10.37,2013-01-25 18:45:00,
2013-01-25 13:50:00,78.3,69.3,30.63,SE,135,3.5,3.5,74,0.00,CLR,,0.00,WeatherDisplay:10.37,2013-01-25 18:50:00,
2013-01-25 13:55:00,77.7,69.9,30.66,SSE,158,3.2,3.2,77,0.00,CLR,,0.00,WeatherDisplay:10.37,2013-01-25 18:55:00,
2013-01-25 14:00:00,77.7,69.1,30.66,SSE,158,0.0,0.0,75,0.00,CLR,,0.00,WeatherDisplay:10.37,2013-01-25 19:00:00,
2013-01-25 14:05:00,78.3,68.5,30.68,ESE,112,1.1,1.1,72,0.00,CLR,,0.00,WeatherDisplay:10.37,2013-01-25 19:05:00,
2013-01-25 14:10:00,78.3,69.7,30.68,ESE,112,0.0,0.0,75,0.00,CLR,,0.00,WeatherDisplay:10.37,2013-01-25 19:10:00,
2013-01-25 14:15:00,77.5,67.8,30.68,SSE,158,2.3,2.3,72,0.00,CLR,,0.00,WeatherDisplay:10.37,2013-01-25 19:15:00,
2013-01-25 14:20:00,77.2,68.7,30.68,SSE,158,2.3,2.4,75,0.00,CLR,,0.00,WeatherDisplay:10.37,2013-01-25 19:20:00,
2013-01-25 14:25:00,77.0,68.5,30.68,SSE,158,0.0,0.0,75,0.00,CLR,,0.00,WeatherDisplay:10.37,2013-01-25 19:25:00,
2013-01-25 14:30:00,77.0,68.5,30.68,WNW,292,1.1,1.1,75,0.00,CLR,,0.00,WeatherDisplay:10.37,2013-01-25 19:30:00,
2013-01-25 14:35:00,76.3,67.8,30.50,SSE,158,3.5,3.5,75,0.00,CLR,,0.00,WeatherDisplay:10.37,2013-01-25 19:35:00,
2013-01-25 14:40:00,76.3,68.6,30.50,WNW,292,1.1,1.1,77,0.00,CLR,,0.00,WeatherDisplay:10.37,2013-01-25 19:40:00,
2013-01-25 14:45:00,76.1,68.4,30.24,WNW,292,1.1,1.1,77,0.00,CLR,,0.00,WeatherDisplay:10.37,2013-01-25 19:45:00,
2013-01-25 14:50:00,76.6,66.9,30.24,ESE,112,1.1,1.1,72,0.00,CLR,,0.00,WeatherDisplay:10.37,2013-01-25 19:50:00,
2013-01-25 14:55:00,75.9,67.0,30.10,SSE,158,0.0,0.0,74,0.00,CLR,,0.00,WeatherDisplay:10.37,2013-01-25 19:55:00,
2013-01-25 15:00:00,75.9,67.4,30.10,NNW,338,2.7,2.7,75,0.00,CLR,,0.00,WeatherDisplay:10.37,2013-01-25 20:00:00,
2013-01-25 15:05:00,75.0,67.7,30.10,NNW,338,3.5,3.5,78,0.00,CLR,,0.00,WeatherDisplay:10.37,2013-01-25 20:05:00,
2013-01-25 15:10:00,75.4,68.8,30.04,North,360,3.5,3.5,80,0.00,CLR,,0.00,WeatherDisplay:10.37,2013-01-25 20:10:00,
2013-01-25 15:15:00,75.6,67.9,30.04,North,360,1.1,1.1,77,0.00,CLR,,0.00,WeatherDisplay:10.37,2013-01-25 20:15:00,
2013-01-25 15:20:00,75.7,66.8,30.00,North,360,1.7,1.7,74,0.00,CLR,,0.00,WeatherDisplay:10.37,2013-01-25 20:20:00,
2013-01-25 15:25:00,75.4,67.7,30.00,North,360,3.5,3.5,77,0.00,CLR,,0.00,WeatherDisplay:10.37,2013-01-25 20:25:00,
2013-01-25 15:30:00,75.6,68.3,30.00,North,360,1.7,1.7,78,0.00,CLR,,0.00,WeatherDisplay:10.37,2013-01-25 20:30:00,
2013-01-25 15:35:00,75.4,67.7,29.97,North,360,1.1,1.1,77,0.00,CLR,,0.00,WeatherDisplay:10.37,2013-01-25 20:35:00,
2013-01-25 15:40:00,75.0,68.0,29.97,North,360,0.0,0.0,79,0.00,CLR,,0.00,WeatherDisplay:10.37,2013-01-25 20:40:00,
2013-01-25 15:45:00,74.8,67.1,30.06,North,360,2.2,2.2,77,0.00,CLR,,0.00,WeatherDisplay:10.37,2013-01-25 20:45:00,
2013-01-25 15:50:00,75.2,65.9,30.06,North,360,2.7,2.7,73,0.00,CLR,,0.00,WeatherDisplay:10.37,2013-01-25 20:50:00,
2013-01-25 15:55:00,75.6,65.1,30.40,ESE,112,2.3,2.3,70,0.00,CLR,,0.00,WeatherDisplay:10.37,2013-01-25 20:55:00,
2013-01-25 16:00:00,75.6,66.3,30.40,North,360,2.3,2.3,73,0.00,CLR,,0.00,WeatherDisplay:10.37,2013-01-25 21:00:00,
2013-01-25 16:05:00,75.6,67.9,30.40,ESE,112,2.3,2.3,77,0.00,CLR,,0.00,WeatherDisplay:10.37,2013-01-25 21:05:00,
2013-01-25 16:10:00,75.7,66.8,30.59,SE,135,3.5,3.5,74,0.00,CLR,,0.00,WeatherDisplay:10.37,2013-01-25 21:10:00,
2013-01-25 16:15:00,75.7,66.0,30.59,SSE,158,0.0,0.0,72,0.00,CLR,,0.00,WeatherDisplay:10.37,2013-01-25 21:15:00,
2013-01-25 16:20:00,75.4,67.3,30.70,SSE,158,0.0,0.0,76,0.00,CLR,,0.00,WeatherDisplay:10.37,2013-01-25 21:20:00,
2013-01-25 16:25:00,75.4,64.9,30.70,ESE,112,3.2,3.2,70,0.00,CLR,,0.00,WeatherDisplay:10.37,2013-01-25 21:25:00,
2013-01-25 16:30:00,75.2,63.1,30.65,SE,135,1.7,1.7,66,0.00,CLR,,0.00,WeatherDisplay:10.37,2013-01-25 21:30:00,
2013-01-25 16:35:00,75.0,63.3,30.65,ESE,112,3.5,3.5,67,0.00,CLR,,0.00,WeatherDisplay:10.37,2013-01-25 21:35:00,
2013-01-25 16:40:00,74.7,63.9,30.65,SE,135,2.3,2.3,69,0.00,CLR,,0.00,WeatherDisplay:10.37,2013-01-25 21:40:00,
2013-01-25 16:45:00,74.5,64.5,30.38,SSE,158,2.3,2.3,71,0.00,CLR,,0.00,WeatherDisplay:10.37,2013-01-25 21:45:00,
2013-01-25 16:50:00,74.1,64.5,30.38,NNE,22,2.3,2.3,72,0.00,CLR,,0.00,WeatherDisplay:10.37,2013-01-25 21:50:00,
2013-01-25 16:55:00,73.9,64.7,30.24,SE,135,0.0,0.0,73,0.00,CLR,,0.00,WeatherDisplay:10.37,2013-01-25 21:55:00,
2013-01-25 17:00:00,73.8,65.0,30.24,SE,135,0.0,0.0,74,0.00,CLR,,0.00,WeatherDisplay:10.37,2013-01-25 22:00:00,
2013-01-25 17:05:00,73.4,64.2,30.24,NE,45,0.0,0.0,73,0.00,CLR,,0.00,WeatherDisplay:10.37,2013-01-25 22:05:00,
2013-01-25 17:10:00,73.4,64.6,30.18,NE,45,0.0,0.0,74,0.00,CLR,,0.00,WeatherDisplay:10.37,2013-01-25 22:10:00,
2013-01-25 17:15:00,73.4,64.2,30.18,NE,45,0.0,0.0,73,0.00,CLR,,0.00,WeatherDisplay:10.37,2013-01-25 22:15:00,
2013-01-25 17:20:00,73.2,64.8,30.14,NE,45,0.0,0.0,75,0.00,CLR,,0.00,WeatherDisplay:10.37,2013-01-25 22:20:00,
2013-01-25 17:25:00,72.9,65.6,30.14,NE,45,0.0,0.0,78,0.00,CLR,,0.00,WeatherDisplay:10.37,2013-01-25 22:25:00,
2013-01-25 17:30:00,72.7,65.4,30.12,NE,45,0.0,0.0,78,0.00,CLR,,0.00,WeatherDisplay:10.37,2013-01-25 22:30:00,
2013-01-25 17:35:00,72.3,65.4,30.12,NE,45,0.0,0.0,79,0.00,CLR,,0.00,WeatherDisplay:10.37,2013-01-25 22:35:00,
2013-01-25 17:40:00,72.1,65.2,30.12,NE,45,0.0,0.0,79,0.00,CLR,,0.00,WeatherDisplay:10.37,2013-01-25 22:40:00,
2013-01-25 17:45:00,72.0,66.6,30.12,NE,45,0.0,0.0,83,0.00,CLR,,0.00,WeatherDisplay:10.37,2013-01-25 22:45:00,
2013-01-25 17:50:00,71.6,67.2,30.12,NE,45,0.0,0.0,86,0.00,CLR,,0.00,WeatherDisplay:10.37,2013-01-25 22:50:00,
2013-01-25 17:55:00,71.4,69.3,30.14,NE,45,0.0,0.0,93,0.00,CLR,,0.00,WeatherDisplay:10.37,2013-01-25 22:55:00,
2013-01-25 18:00:00,71.1,70.5,30.14,NE,45,0.0,0.0,98,0.00,CLR,,0.00,WeatherDisplay:10.37,2013-01-25 23:00:00,
2013-01-25 18:05:00,70.5,69.9,30.14,NE,45,0.0,0.0,98,0.00,CLR,,0.00,WeatherDisplay:10.37,2013-01-25 23:05:00,
2013-01-25 18:10:00,70.2,69.6,30.15,NE,45,0.0,0.0,98,0.00,CLR,,0.00,WeatherDisplay:10.37,2013-01-25 23:10:00,
2013-01-25 18:15:00,69.8,69.2,30.15,NE,45,0.0,0.0,98,0.00,CLR,,0.00,WeatherDisplay:10.37,2013-01-25 23:15:00,
2013-01-25 18:20:00,69.3,68.7,30.14,NE,45,0.0,0.0,98,0.00,CLR,,0.00,WeatherDisplay:10.37,2013-01-25 23:20:00,
2013-01-25 18:25:00,69.1,68.5,30.14,NE,45,0.0,0.0,98,0.00,CLR,,0.00,WeatherDisplay:10.37,2013-01-25 23:25:00,
2013-01-25 18:30:00,68.7,68.1,30.15,NE,45,0.0,0.0,98,0.00,CLR,,0.00,WeatherDisplay:10.37,2013-01-25 23:30:00,
2013-01-25 18:35:00,68.4,67.8,30.15,NE,45,0.0,0.0,98,0.00,CLR,,0.00,WeatherDisplay:10.37,2013-01-25 23:35:00,
2013-01-25 18:40:00,68.2,67.6,30.15,NE,45,0.0,0.0,98,0.00,CLR,,0.00,WeatherDisplay:10.37,2013-01-25 23:40:00,
2013-01-25 18:45:00,67.8,67.2,30.17,NE,45,0.0,0.0,98,0.00,CLR,,0.00,WeatherDisplay:10.37,2013-01-25 23:45:00,
2013-01-25 18:50:00,67.6,67.0,30.17,NE,45,0.0,0.0,98,0.00,CLR,,0.00,WeatherDisplay:10.37,2013-01-25 23:50:00,
2013-01-25 18:55:00,67.3,66.7,30.16,NE,45,0.0,0.0,98,0.00,CLR,,0.00,WeatherDisplay:10.37,2013-01-25 23:55:00,
2013-01-25 19:00:00,67.3,66.7,30.16,NE,45,0.0,0.0,98,0.00,CLR,,0.00,WeatherDisplay:10.37,2013-01-26 00:00:00,
2013-01-25 19:05:00,67.1,66.5,30.16,NE,45,0.0,0.0,98,0.00,CLR,,0.00,WeatherDisplay:10.37,2013-01-26 00:05:00,
2013-01-25 19:10:00,66.7,66.1,30.16,NE,45,0.0,0.0,98,0.00,CLR,,0.00,WeatherDisplay:10.37,2013-01-26 00:10:00,
2013-01-25 19:15:00,66.6,66.0,30.16,NE,45,0.0,0.0,98,0.00,CLR,,0.00,WeatherDisplay:10.37,2013-01-26 00:15:00,
2013-01-25 19:20:00,66.4,65.8,30.18,NE,45,0.0,0.0,98,0.00,CLR,,0.00,WeatherDisplay:10.37,2013-01-26 00:20:00,
2013-01-25 19:25:00,66.2,65.6,30.18,NE,45,0.0,0.0,98,0.00,CLR,,0.00,WeatherDisplay:10.37,2013-01-26 00:25:00,
2013-01-25 19:30:00,65.8,65.2,30.37,NE,45,0.0,0.0,98,0.00,CLR,,0.00,WeatherDisplay:10.37,2013-01-26 00:30:00,
2013-01-25 19:35:00,65.8,65.2,30.37,NE,45,0.0,0.0,98,0.00,CLR,,0.00,WeatherDisplay:10.37,2013-01-26 00:35:00,
2013-01-25 19:40:00,65.7,65.1,30.37,NE,45,0.0,0.0,98,0.00,CLR,,0.00,WeatherDisplay:10.37,2013-01-26 00:40:00,
2013-01-25 19:45:00,65.7,65.1,30.60,NE,45,0.0,0.0,98,0.00,CLR,,0.00,WeatherDisplay:10.37,2013-01-26 00:45:00,
2013-01-25 19:50:00,65.7,65.1,30.60,NE,45,0.0,0.0,98,0.00,CLR,,0.00,WeatherDisplay:10.37,2013-01-26 00:50:00,
2013-01-25 19:55:00,65.5,64.9,30.73,NE,45,0.0,0.0,98,0.00,CLR,,0.00,WeatherDisplay:10.37,2013-01-26 00:55:00,
2013-01-25 20:00:00,65.3,64.7,30.73,NE,45,0.0,0.0,98,0.00,CLR,,0.00,WeatherDisplay:10.37,2013-01-26 01:00:00,
2013-01-25 20:05:00,65.1,64.5,30.73,NE,45,0.0,0.0,98,0.00,CLR,,0.00,WeatherDisplay:10.37,2013-01-26 01:05:00,
2013-01-25 20:10:00,65.1,64.5,30.81,NE,45,0.0,0.0,98,0.00,CLR,,0.00,WeatherDisplay:10.37,2013-01-26 01:10:00,
2013-01-25 20:15:00,65.3,64.7,30.81,NE,45,0.0,0.0,98,0.00,CLR,,0.00,WeatherDisplay:10.37,2013-01-26 01:15:00,
2013-01-25 20:20:00,65.3,64.7,30.85,NE,45,0.0,0.0,98,0.00,CLR,,0.00,WeatherDisplay:10.37,2013-01-26 01:20:00,
2013-01-25 20:25:00,65.5,64.9,30.85,NE,45,0.0,0.0,98,0.00,CLR,,0.00,WeatherDisplay:10.37,2013-01-26 01:25:00,
2013-01-25 20:30:00,65.5,64.9,30.90,NE,45,0.0,0.0,98,0.00,CLR,,0.00,WeatherDisplay:10.37,2013-01-26 01:30:00,
2013-01-25 20:35:00,65.5,64.9,30.90,NE,45,0.0,0.0,98,0.00,CLR,,0.00,WeatherDisplay:10.37,2013-01-26 01:35:00,
2013-01-25 20:40:00,65.5,64.9,30.90,NE,45,0.0,0.0,98,0.00,CLR,,0.00,WeatherDisplay:10.37,2013-01-26 01:40:00,
2013-01-25 20:45:00,65.3,64.7,30.94,NE,45,0.0,0.0,98,0.00,CLR,,0.00,WeatherDisplay:10.37,2013-01-26 01:45:00,
2013-01-25 20:50:00,65.3,64.7,30.94,NE,45,0.0,0.0,98,0.00,CLR,,0.00,WeatherDisplay:10.37,2013-01-26 01:50:00,
2013-01-25 20:55:00,65.1,64.5,30.97,NE,45,0.0,0.0,98,0.00,CLR,,0.00,WeatherDisplay:10.37,2013-01-26 01:55:00,
2013-01-25 21:00:00,65.1,64.5,30.97,NE,45,0.0,0.0,98,0.00,CLR,,0.00,WeatherDisplay:10.37,2013-01-26 02:00:00,
2013-01-25 21:05:00,65.1,64.5,30.97,NE,45,0.0,0.0,98,0.00,CLR,,0.00,WeatherDisplay:10.37,2013-01-26 02:05:00,
2013-01-25 21:10:00,64.9,64.3,30.99,NE,45,0.0,0.0,98,0.00,CLR,,0.00,WeatherDisplay:10.37,2013-01-26 02:10:00,
2013-01-25 21:15:00,64.9,64.3,30.99,NE,45,0.0,0.0,98,0.00,CLR,,0.00,WeatherDisplay:10.37,2013-01-26 02:15:00,
2013-01-25 21:20:00,64.8,64.2,31.00,NE,45,0.0,0.0,98,0.00,CLR,,0.00,WeatherDisplay:10.37,2013-01-26 02:20:00,
2013-01-25 21:25:00,64.6,64.0,31.00,NE,45,0.0,0.0,98,0.00,CLR,,0.00,WeatherDisplay:10.37,2013-01-26 02:25:00,
2013-01-25 21:30:00,64.4,63.8,31.00,NE,45,0.0,0.0,98,0.00,CLR,,0.00,WeatherDisplay:10.37,2013-01-26 02:30:00,
2013-01-25 21:35:00,64.4,63.8,31.00,NE,45,0.0,0.0,98,0.00,CLR,,0.00,WeatherDisplay:10.37,2013-01-26 02:35:00,
2013-01-25 21:40:00,64.4,63.8,31.00,NE,45,0.0,0.0,98,0.00,CLR,,0.00,WeatherDisplay:10.37,2013-01-26 02:40:00,
2013-01-25 21:45:00,64.2,63.6,31.02,NE,45,0.0,0.0,98,0.00,CLR,,0.00,WeatherDisplay:10.37,2013-01-26 02:45:00,
2013-01-25 21:50:00,64.2,63.6,31.02,NE,45,0.0,0.0,98,0.00,CLR,,0.00,WeatherDisplay:10.37,2013-01-26 02:50:00,
2013-01-25 21:55:00,64.0,63.4,31.02,NE,45,0.0,0.0,98,0.00,CLR,,0.00,WeatherDisplay:10.37,2013-01-26 02:55:00,
2013-01-25 22:00:00,64.0,63.4,31.02,NE,45,0.0,0.0,98,0.00,CLR,,0.00,WeatherDisplay:10.37,2013-01-26 03:00:00,
2013-01-25 22:05:00,63.9,63.3,31.04,NE,45,0.0,0.0,98,0.00,CLR,,0.00,WeatherDisplay:10.37,2013-01-26 03:05:00,
2013-01-25 22:10:00,63.9,63.3,31.04,NE,45,0.0,0.0,98,0.00,CLR,,0.00,WeatherDisplay:10.37,2013-01-26 03:10:00,
2013-01-25 22:15:00,63.9,63.3,31.04,NE,45,0.0,0.0,98,0.00,CLR,,0.00,WeatherDisplay:10.37,2013-01-26 03:15:00,
2013-01-25 22:20:00,63.9,63.3,31.07,NE,45,0.0,0.0,98,0.00,CLR,,0.00,WeatherDisplay:10.37,2013-01-26 03:20:00,
2013-01-25 22:25:00,63.9,63.3,31.07,NE,45,0.0,0.0,98,0.00,CLR,,0.00,WeatherDisplay:10.37,2013-01-26 03:25:00,
2013-01-25 22:30:00,63.9,63.3,31.09,NE,45,0.0,0.0,98,0.00,CLR,,0.00,WeatherDisplay:10.37,2013-01-26 03:30:00,
2013-01-25 22:35:00,63.9,63.3,31.09,NE,45,0.0,0.0,98,0.00,CLR,,0.00,WeatherDisplay:10.37,2013-01-26 03:35:00,
2013-01-25 22:40:00,63.5,62.9,31.09,NE,45,0.0,0.0,98,0.00,CLR,,0.00,WeatherDisplay:10.37,2013-01-26 03:40:00,
2013-01-25 22:45:00,63.5,62.9,30.89,NE,45,0.0,0.0,98,0.00,CLR,,0.00,WeatherDisplay:10.37,2013-01-26 03:45:00,
2013-01-25 22:50:00,63.5,62.9,30.89,NE,45,0.0,0.0,98,0.00,CLR,,0.00,WeatherDisplay:10.37,2013-01-26 03:50:00,
2013-01-25 22:55:00,63.5,62.9,30.67,NE,45,0.0,0.0,98,0.00,CLR,,0.00,WeatherDisplay:10.37,2013-01-26 03:55:00,
2013-01-25 23:00:00,63.7,63.1,30.67,NE,45,0.0,0.0,98,0.00,CLR,,0.00,WeatherDisplay:10.37,2013-01-26 04:00:00,
2013-01-25 23:05:00,63.7,63.1,30.67,NE,45,0.0,0.0,98,0.00,CLR,,0.00,WeatherDisplay:10.37,2013-01-26 04:05:00,
2013-01-25 23:10:00,63.7,63.1,30.57,NE,45,0.0,0.0,98,0.00,CLR,,0.00,WeatherDisplay:10.37,2013-01-26 04:10:00,
2013-01-25 23:15:00,63.9,63.3,30.57,NE,45,0.0,0.0,98,0.00,CLR,,0.00,WeatherDisplay:10.37,2013-01-26 04:15:00,
2013-01-25 23:20:00,64.2,63.6,30.51,NE,45,0.0,0.0,98,0.00,CLR,,0.00,WeatherDisplay:10.37,2013-01-26 04:20:00,
2013-01-25 23:25:00,64.2,63.6,30.51,NE,45,0.0,0.0,98,0.00,CLR,,0.00,WeatherDisplay:10.37,2013-01-26 04:25:00,
2013-01-25 23:30:00,64.4,63.8,30.46,NE,45,0.0,0.0,98,0.00,CLR,,0.00,WeatherDisplay:10.37,2013-01-26 04:30:00,
2013-01-25 23:35:00,64.8,64.2,30.46,NE,45,0.0,0.0,98,0.00,CLR,,0.00,WeatherDisplay:10.37,2013-01-26 04:35:00,
2013-01-25 23:40:00,64.8,64.2,30.46,NE,45,0.0,0.0,98,0.00,CLR,,0.00,WeatherDisplay:10.37,2013-01-26 04:40:00,
2013-01-25 23:45:00,64.8,64.2,30.42,NE,45,0.0,0.0,98,0.00,CLR,,0.00,WeatherDisplay:10.37,2013-01-26 04:45:00,
2013-01-25 23:50:00,64.8,64.2,30.42,NE,45,0.0,0.0,98,0.00,CLR,,0.00,WeatherDisplay:10.37,2013-01-26 04:50:00,
2013-01-25 23:55:00,64.8,64.2,30.41,NE,45,0.0,0.0,98,0.00,CLR,,0.00,WeatherDisplay:10.37,2013-01-26 04:55:00,